Zurück zum Katalog

STARLINK-38247

AktivKommunikationSSO
NORAD 100303·PAYLOAD·🇺🇸 United States

Gestartet Aug 12, 2026 von Vandenberg Space Force Base

Loading…

Nächste Überflüge (nächste 24 Stunden)

TLE

AktuellSource: Space-Track

Epoche: Sep 14, 2026, 22:32 UTC

1 A0303U 26184C   26257.93921560  .00014557  00000-0  45226-3 0  9998
2 A0303  97.2829 123.0692 0001504  92.6560 267.4855 15.33451034  6503

Verfolge STARLINK-38247 in Echtzeit mit AllMySat

Download on the App Store